Regional Weather Roundup
Issued by NWS

Home | Current Version | Previous Version | Text Only | Print | Product List | Glossary On
Versions: 1 2 3 4 5 6 7 8 9 10 11 12 13 14 15 16 17 18 19 20 21 22 23 24 25 26 27 28 29 30 31 32 33 34 35 36 37 38 39 40 41 42 43 44 45 46 47 48 49 50
000
ASUS45 KCYS 260310
RWRWY

WYOMING REGIONAL WEATHER ROUNDUP
NATIONAL WEATHER SERVICE CHEYENNE WY
800 PM MST SUN JAN 25 2015

NOTE:  "FAIR" INDICATES FEW OR NO CLOUDS BELOW 12,000 FEET
WITH NO SIGNIFICANT WEATHER AND/OR OBSTRUCTIONS TO VISIBILITY.

WYZ001-260400-
YELLOWSTONE NATIONAL PARK

CITY           SKY/WX    TMP DP  RH WIND       PRES   REMARKS
LK YELLOWSTONE   N/A     30  26  85 CALM      30.47R
W YELLOWSTONE  NOT AVBL

$$
WYZ002>013-054>058-071-098>099-260400-
NORTHERN WYOMING

CITY           SKY/WX    TMP DP  RH WIND       PRES   REMARKS
JACKSON        CLEAR     30  28  93 N7        30.43S WCI  23
CODY           FAIR      55  25  30 W10G17    30.17S
GREYBULL       FAIR      24  21  88 W6        30.18S WCI  17
WORLAND        FAIR      26  22  84 CALM      30.17S
SHERIDAN       FAIR      44  27  51 VRB5      30.05R
BUFFALO        FAIR      47  27  45 CALM      30.08R
GILLETTE       FAIR      39  30  70 W12       30.05S WCI  32
HULETT           N/A    N/A N/A N/A MISG        N/A
NEWCASTLE      FAIR      34  32  93 CALM      30.06S

$$
WYZ014>020-022>026-101>103-260400-
CENTRAL WYOMING

CITY           SKY/WX    TMP DP  RH WIND       PRES   REMARKS
BIG PINEY      FAIR      33  26  75 NE14      30.37F WCI  23
PINEDALE       FAIR      37  28  70 W17       30.34S WCI  28
DUBOIS         FAIR      45  21  39 W32G38    30.29S
LANDER         FAIR      39  27  62 CALM      30.21R
RIVERTON       FAIR      36  28  73 SW10      30.22S WCI  28
CASPER         FAIR      39  28  64 SW12      30.17R WCI  32
DOUGLAS        FAIR      41  29  62 NW12      30.15R

$$
WYZ021-027>030-104>119-260400-
SOUTHERN WYOMING

CITY           SKY/WX    TMP DP  RH WIND       PRES   REMARKS
EVANSTON       FAIR      36  29  75 W6        30.44R WCI  31
KEMMERER       FAIR      34  30  86 W6        30.43S WCI  29
FORT BRIDGER   FAIR      38  32  78 W10       30.44F WCI  31
ROCK SPRINGS   FAIR      34  25  69 W9        30.37R WCI  27
DIXON          FAIR      30  26  86 CALM      30.42R
RAWLINS        FAIR      38  27  64 W20       30.30R WCI  28
SARATOGA       FAIR      37  28  70 SW12      30.33S WCI  30
LARAMIE        FAIR      34  24  67 CALM      30.23S
CHEYENNE       FAIR      44  25  47 NW9       30.18R
TORRINGTON     FAIR      43  31  62 NW10      30.11R
PINE BLUFFS    FAIR      43  30  61 NW17      30.16R

$$


USA.gov is the U.S. government's official web portal to all federal, state and local government web resources and services.